Location: Altenhof
(50.2418°N, 10.8789°E)
Time: 18:21:35
(UTC+00:00)

Cosmos 1535 Rocket - Pass Details

Date: 18 February 2020
Orbit: 947 x 1005 km, 83.0° (Epoch: 27 March)

Event Time Altitude Azimuth Distance (km) Brightness Sun altitude
Rises 03:31:25 0° 348° (NNW) 3,704 7.6 -27.9°
Reaches altitude 10° 03:33:58 10° 347° (NNW) 2,744 6.9 -27.5°
Maximum altitude 03:40:12 70° 265° (W) 1,030 4.3 -26.6°
Enters shadow 03:41:16 58° 212° (SSW) 1,117 4.5 -26.4°
Exits shadow 03:45:57 12° 184° (S) 2,557 6.5 -25.7°
Drops below altitude 10° 03:46:18 10° 183° (S) 2,686 6.6 -25.6°
Sets 03:48:47 0° 181° (S) 3,622 7.4 -25.2°
